| time (UTC) | temp F | wind direction | speed MPH | gust MPH | rain 1hr in | rain 24hr in | rain mn in | humidity % | barometer mb |
| 20260506101039 | 43 | 76 | 2.0 | 6.0 | 0.00 | 0.00 | 0.00 | 65 | 1008.4 |
| 20260506101035 | 43 | 102 | 2.0 | 6.0 | 0.00 | 0.00 | 0.00 | 65 | 1008.4 |
| 20260506100034 | 43 | 111 | 2.0 | 5.0 | 0.00 | 0.00 | 0.00 | 65 | 1008.3 |
| 20260506095535 | 43 | 72 | 1.0 | 5.0 | 0.00 | 0.00 | 0.00 | 65 | 1008.3 |
| 20260506095141 | 43 | 145 | 2.0 | 5.0 | 0.00 | 0.00 | 0.00 | 64 | 1008.2 |
| 20260506095039 | 43 | 139 | 2.0 | 5.0 | 0.00 | 0.00 | 0.00 | 64 | 1008.3 |
| 20260506095034 | 43 | 139 | 1.0 | 3.0 | 0.00 | 0.00 | 0.00 | 64 | 1008.3 |
| 20260506093534 | 43 | 127 | 2.0 | 5.0 | 0.00 | 0.00 | 0.00 | 63 | 1008.2 |
| 20260506093034 | 44 | 131 | 2.0 | 5.0 | 0.00 | 0.00 | 0.00 | 63 | 1008.2 |
| 20260506092534 | 44 | 131 | 3.0 | 10.0 | 0.00 | 0.00 | 0.00 | 63 | 1008.1 |
| 20260506092038 | 44 | 170 | 3.0 | 9.0 | 0.00 | 0.00 | 0.00 | 63 | 1008.0 |
| 20260506092034 | 44 | 112 | 3.0 | 10.0 | 0.00 | 0.00 | 0.00 | 63 | 1008.1 |
| 20260506091639 | 44 | 105 | 3.0 | 9.0 | 0.00 | 0.00 | 0.00 | 63 | 1007.9 |
| 20260506090538 | 44 | 163 | 4.0 | 8.0 | 0.00 | 0.00 | 0.00 | 63 | 1008.0 |
| 20260506090534 | 44 | 180 | 3.0 | 8.0 | 0.00 | 0.00 | 0.00 | 63 | 1008.0 |
| 20260506085534 | 44 | 132 | 3.0 | 8.0 | 0.00 | 0.00 | 0.00 | 63 | 1007.9 |
| 20260506085035 | 44 | 143 | 4.0 | 9.0 | 0.00 | 0.00 | 0.00 | 63 | 1007.8 |
| 20260506084533 | 44 | 201 | 4.0 | 9.0 | 0.00 | 0.00 | 0.00 | 62 | 1007.8 |
| 20260506084033 | 44 | 145 | 5.0 | 11.0 | 0.00 | 0.00 | 0.00 | 63 | 1007.7 |
| 20260506083533 | 44 | 199 | 5.0 | 12.0 | 0.00 | 0.00 | 0.00 | 62 | 1007.7 |
| 20260506083037 | 44 | 206 | 5.0 | 11.0 | 0.00 | 0.00 | 0.00 | 63 | 1007.6 |
| 20260506083033 | 44 | 153 | 5.0 | 12.0 | 0.00 | 0.00 | 0.00 | 63 | 1007.7 |
| 20260506082033 | 44 | 137 | 5.0 | 13.0 | 0.00 | 0.00 | 0.00 | 63 | 1007.6 |
| 20260506081532 | 44 | 110 | 5.0 | 13.0 | 0.00 | 0.00 | 0.00 | 63 | 1007.6 |
| 20260506081036 | 44 | 169 | 6.0 | 14.0 | 0.00 | 0.00 | 0.00 | 63 | 1007.6 |
| 20260506081032 | 44 | 154 | 5.0 | 11.0 | 0.00 | 0.00 | 0.00 | 63 | 1007.5 |
| 20260506073527 | 44 | 147 | 5.0 | 11.0 | 0.00 | 0.00 | 0.00 | 63 | 1007.3 |
| 20260506073026 | 44 | 172 | 4.0 | 11.0 | 0.00 | 0.00 | 0.00 | 63 | 1007.3 |
| 20260506072531 | 44 | 141 | 4.0 | 12.0 | 0.00 | 0.00 | 0.00 | 63 | 1007.1 |
| 20260506072527 | 44 | 222 | 4.0 | 11.0 | 0.00 | 0.00 | 0.00 | 63 | 1007.2 |
| 20260506071527 | 44 | 151 | 5.0 | 12.0 | 0.00 | 0.00 | 0.00 | 63 | 1007.1 |
| 20260506071027 | 44 | 174 | 6.0 | 15.0 | 0.00 | 0.00 | 0.00 | 63 | 1007.0 |
| 20260506070528 | 44 | 145 | 6.0 | 15.0 | 0.00 | 0.00 | 0.00 | 63 | 1006.9 |
| 20260506061527 | 46 | 153 | 7.0 | 18.0 | 0.00 | 0.00 | 0.00 | 61 | 1006.5 |
| 20260506061027 | 46 | 162 | 8.0 | 16.0 | 0.00 | 0.00 | 0.00 | 61 | 1006.5 |
| 20260506060527 | 46 | 118 | 7.0 | 17.0 | 0.00 | 0.00 | 0.00 | 61 | 1006.4 |
| 20260506051018 | 47 | 188 | 7.0 | 16.0 | 0.00 | 0.00 | 0.00 | 60 | 1005.9 |
| 20260506050518 | 47 | 148 | 7.0 | 16.0 | 0.00 | 0.00 | 0.00 | 60 | 1005.9 |
| 20260506045018 | 47 | 139 | 7.0 | 22.0 | 0.00 | 0.00 | 0.00 | 59 | 1005.7 |
| 20260506044523 | 47 | 143 | 8.0 | 16.0 | 0.00 | 0.00 | 0.00 | 59 | 1005.7 |
| 20260506044519 | 47 | 174 | 7.0 | 15.0 | 0.00 | 0.00 | 0.00 | 60 | 1005.7 |
| 20260506043519 | 48 | 147 | 8.0 | 16.0 | 0.00 | 0.00 | 0.00 | 59 | 1005.6 |
| 20260506043019 | 48 | 133 | 7.0 | 15.0 | 0.00 | 0.00 | 0.00 | 59 | 1005.6 |
| 20260506042520 | 48 | 124 | 6.0 | 15.0 | 0.00 | 0.00 | 0.00 | 59 | 1005.5 |
| 20260506042020 | 48 | 145 | 7.0 | 15.0 | 0.00 | 0.00 | 0.00 | 59 | 1005.5 |
| 20260506041520 | 48 | 181 | 8.0 | 18.0 | 0.00 | 0.00 | 0.00 | 58 | 1005.6 |
| 20260506041020 | 48 | 189 | 8.0 | 21.0 | 0.00 | 0.00 | 0.00 | 57 | 1005.5 |
| 20260506040524 | 49 | 175 | 7.0 | 15.0 | 0.00 | 0.00 | 0.00 | 57 | 1005.5 |
| 20260506040520 | 49 | 226 | 8.0 | 21.0 | 0.00 | 0.00 | 0.00 | 58 | 1005.6 |
| 20260506035520 | 49 | 184 | 6.0 | 13.0 | 0.00 | 0.00 | 0.00 | 56 | 1005.4 |
| 20260506035023 | 49 | 164 | 6.0 | 16.0 | 0.00 | 0.00 | 0.00 | 56 | 1005.3 |
| 20260506035017 | 49 | 165 | 6.0 | 16.0 | 0.00 | 0.00 | 0.00 | 55 | 1005.3 |
| 20260506034016 | 49 | 170 | 6.0 | 12.0 | 0.00 | 0.00 | 0.00 | 56 | 1005.3 |
| 20260506033516 | 49 | 135 | 7.0 | 16.0 | 0.00 | 0.00 | 0.00 | 56 | 1005.2 |
| 20260506033015 | 49 | 184 | 5.0 | 16.0 | 0.00 | 0.00 | 0.00 | 55 | 1005.2 |
| 20260506032517 | 49 | 175 | 5.0 | 12.0 | 0.00 | 0.00 | 0.00 | 56 | 1005.2 |
| 20260506032019 | 50 | 114 | 3.0 | 11.0 | 0.00 | 0.00 | 0.00 | 55 | 1005.2 |
| 20260506032015 | 49 | 146 | 5.0 | 12.0 | 0.00 | 0.00 | 0.00 | 56 | 1005.2 |
| 20260506031622 | 50 | 108 | 2.0 | 7.0 | 0.00 | 0.00 | 0.00 | 55 | 1005.2 |
| 20260506030516 | 50 | 124 | 3.0 | 6.0 | 0.00 | 0.00 | 0.00 | 54 | 1005.1 |
| 20260506030014 | 50 | 224 | 3.0 | 6.0 | 0.00 | 0.00 | 0.00 | 54 | 1005.1 |
| 20260506025514 | 50 | 147 | 5.0 | 12.0 | 0.00 | 0.00 | 0.00 | 54 | 1005.1 |
| 20260506025014 | 50 | 177 | 5.0 | 12.0 | 0.00 | 0.00 | 0.00 | 54 | 1005.0 |
| 20260506024515 | 50 | 161 | 4.0 | 11.0 | 0.00 | 0.00 | 0.00 | 53 | 1005.0 |
| 20260506024511 | 51 | 106 | 4.0 | 11.0 | 0.00 | 0.00 | 0.00 | 53 | 1004.9 |
| 20260506023510 | 51 | 168 | 4.0 | 13.0 | 0.00 | 0.00 | 0.00 | 53 | 1004.9 |
| 20260506023117 | 51 | 151 | 7.0 | 13.0 | 0.00 | 0.00 | 0.00 | 53 | 1004.8 |
| 20260506023014 | 51 | 121 | 6.0 | 13.0 | 0.00 | 0.00 | 0.00 | 53 | 1004.8 |
| 20260506023010 | 51 | 177 | 5.0 | 13.0 | 0.00 | 0.00 | 0.00 | 54 | 1004.8 |
| 20260506021508 | 51 | 193 | 6.0 | 15.0 | 0.00 | 0.00 | 0.00 | 53 | 1004.9 |
| 20260506021006 | 51 | 179 | 6.0 | 13.0 | 0.00 | 0.00 | 0.00 | 52 | 1004.8 |
| 20260506020508 | 51 | 133 | 7.0 | 13.0 | 0.00 | 0.00 | 0.00 | 52 | 1004.9 |
| 20260506020007 | 51 | 183 | 6.0 | 13.0 | 0.00 | 0.00 | 0.00 | 53 | 1004.9 |
| 20260506015506 | 51 | 160 | 6.0 | 13.0 | 0.00 | 0.00 | 0.00 | 53 | 1004.8 |
| 20260506015006 | 51 | 176 | 7.0 | 14.0 | 0.00 | 0.00 | 0.00 | 53 | 1004.9 |
| 20260506014505 | 50 | 167 | 6.0 | 14.0 | 0.00 | 0.00 | 0.00 | 54 | 1004.8 |
| 20260506014006 | 50 | 147 | 5.0 | 11.0 | 0.00 | 0.00 | 0.00 | 55 | 1004.9 |
| 20260506013507 | 50 | 197 | 5.0 | 10.0 | 0.00 | 0.00 | 0.00 | 55 | 1004.8 |
| 20260506013006 | 50 | 159 | 6.0 | 12.0 | 0.00 | 0.00 | 0.00 | 55 | 1004.9 |
| 20260506012506 | 50 | 166 | 6.0 | 13.0 | 0.00 | 0.00 | 0.00 | 54 | 1004.8 |
| 20260506012006 | 50 | 186 | 7.0 | 15.0 | 0.00 | 0.00 | 0.00 | 54 | 1004.9 |
| 20260506011507 | 50 | 187 | 7.0 | 15.0 | 0.00 | 0.00 | 0.00 | 54 | 1004.9 |
| 20260506011010 | 50 | 167 | 6.0 | 14.0 | 0.00 | 0.00 | 0.00 | 55 | 1004.8 |
| 20260506011006 | 50 | 163 | 7.0 | 14.0 | 0.00 | 0.00 | 0.00 | 55 | 1004.9 |
| 20260506010007 | 50 | 162 | 6.0 | 14.0 | 0.00 | 0.00 | 0.00 | 55 | 1004.8 |
| 20260506005502 | 50 | 147 | 6.0 | 13.0 | 0.00 | 0.00 | 0.00 | 55 | 1004.8 |
| 20260506005002 | 51 | 134 | 6.0 | 16.0 | 0.00 | 0.00 | 0.00 | 55 | 1004.7 |
| 20260506004503 | 50 | 139 | 7.0 | 18.0 | 0.00 | 0.00 | 0.00 | 55 | 1004.7 |
| 20260506004001 | 51 | 164 | 7.0 | 18.0 | 0.00 | 0.00 | 0.00 | 55 | 1004.6 |
| 20260506003501 | 51 | 137 | 7.0 | 15.0 | 0.00 | 0.00 | 0.00 | 55 | 1004.7 |
| 20260506003457 | 51 | 159 | 8.0 | 17.0 | 0.00 | 0.00 | 0.00 | 55 | 1004.7 |
| 20260506003102 | 51 | 155 | 8.0 | 17.0 | 0.00 | 0.00 | 0.00 | 55 | 1004.7 |
| 20260506002000 | 51 | 167 | 7.0 | 16.0 | 0.00 | 0.00 | 0.00 | 55 | 1004.6 |
| 20260506001956 | 51 | 208 | 8.0 | 17.0 | 0.00 | 0.00 | 0.00 | 56 | 1004.7 |
| 20260506000957 | 51 | 183 | 8.0 | 17.0 | 0.00 | 0.00 | 0.00 | 55 | 1004.6 |
| 20260506000455 | 51 | 194 | 10.0 | 17.0 | 0.00 | 0.00 | 0.00 | 54 | 1004.6 |
| 20260505235953 | 51 | 154 | 9.0 | 17.0 | 0.00 | 0.00 | 0.00 | 54 | 1004.6 |
| 20260505235452 | 51 | 164 | 8.0 | 17.0 | 0.00 | 0.00 | 0.00 | 54 | 1004.5 |
| 20260505234952 | 50 | 167 | 9.0 | 18.0 | 0.00 | 0.00 | 0.00 | 55 | 1004.5 |
| 20260505234450 | 50 | 139 | 9.0 | 21.0 | 0.00 | 0.00 | 0.00 | 54 | 1004.5 |
| 20260505233949 | 50 | 179 | 10.0 | 21.0 | 0.00 | 0.00 | 0.00 | 54 | 1004.6 |
| 20260505233444 | 50 | 155 | 9.0 | 19.0 | 0.00 | 0.00 | 0.00 | 54 | 1004.5 |
| 20260505232944 | 50 | 168 | 10.0 | 22.0 | 0.00 | 0.00 | 0.00 | 54 | 1004.5 |
| 20260505232444 | 50 | 161 | 9.0 | 22.0 | 0.00 | 0.00 | 0.00 | 53 | 1004.6 |
| 20260505231945 | 51 | 163 | 7.0 | 19.0 | 0.00 | 0.00 | 0.00 | 54 | 1004.5 |
| 20260505231444 | 51 | 162 | 6.0 | 14.0 | 0.00 | 0.00 | 0.00 | 53 | 1004.5 |
| 20260505230948 | 50 | 163 | 9.0 | 17.0 | 0.00 | 0.00 | 0.00 | 52 | 1004.3 |
| 20260505230944 | 50 | 102 | 7.0 | 17.0 | 0.00 | 0.00 | 0.00 | 54 | 1004.4 |
| 20260505225944 | 50 | 196 | 9.0 | 17.0 | 0.00 | 0.00 | 0.00 | 53 | 1004.4 |
| 20260505225444 | 50 | 193 | 9.0 | 17.0 | 0.00 | 0.00 | 0.00 | 53 | 1004.4 |
| 20260505224943 | 50 | 179 | 7.0 | 17.0 | 0.00 | 0.00 | 0.00 | 54 | 1004.3 |
| 20260505224447 | 51 | 204 | 7.0 | 15.0 | 0.00 | 0.00 | 0.00 | 54 | 1004.3 |
| 20260505224442 | 50 | 168 | 7.0 | 15.0 | 0.00 | 0.00 | 0.00 | 53 | 1004.3 |
| 20260505223442 | 50 | 115 | 7.0 | 14.0 | 0.00 | 0.00 | 0.00 | 53 | 1004.2 |
| 20260505222946 | 50 | 127 | 9.0 | 18.0 | 0.00 | 0.00 | 0.00 | 52 | 1004.2 |
| 20260505222942 | 50 | 179 | 8.0 | 18.0 | 0.00 | 0.00 | 0.00 | 53 | 1004.2 |
| 20260505222549 | 50 | 166 | 8.0 | 18.0 | 0.00 | 0.00 | 0.00 | 52 | 1004.2 |
| 20260505221442 | 50 | 102 | 8.0 | 18.0 | 0.00 | 0.00 | 0.00 | 52 | 1004.1 |
| 20260505220941 | 50 | 172 | 8.0 | 17.0 | 0.00 | 0.00 | 0.00 | 52 | 1004.2 |
| 20260505220442 | 50 | 186 | 7.0 | 17.0 | 0.00 | 0.00 | 0.00 | 51 | 1004.1 |
| 20260505215942 | 50 | 199 | 7.0 | 14.0 | 0.00 | 0.00 | 0.00 | 53 | 1004.1 |
| 20260505215446 | 49 | 127 | 8.0 | 17.0 | 0.00 | 0.00 | 0.00 | 54 | 1004.0 |
| 20260505215442 | 49 | 164 | 8.0 | 17.0 | 0.00 | 0.00 | 0.00 | 54 | 1004.1 |
| 20260505214442 | 49 | 195 | 8.0 | 16.0 | 0.00 | 0.00 | 0.00 | 54 | 1004.0 |
| 20260505213941 | 49 | 197 | 9.0 | 19.0 | 0.00 | 0.00 | 0.00 | 55 | 1003.9 |
| 20260505213443 | 49 | 144 | 8.0 | 19.0 | 0.00 | 0.00 | 0.00 | 54 | 1004.0 |
| 20260505212938 | 49 | 151 | 7.0 | 16.0 | 0.00 | 0.00 | 0.00 | 55 | 1004.0 |
| 20260505212442 | 49 | 189 | 7.0 | 16.0 | 0.00 | 0.00 | 0.00 | 56 | 1003.9 |
| 20260505212438 | 49 | 175 | 8.0 | 16.0 | 0.00 | 0.00 | 0.00 | 56 | 1004.0 |
| 20260505211439 | 48 | 144 | 8.0 | 19.0 | 0.00 | 0.00 | 0.00 | 56 | 1003.9 |
| 20260505210937 | 48 | 176 | 8.0 | 19.0 | 0.00 | 0.00 | 0.00 | 56 | 1003.9 |
| 20260505210433 | 49 | 142 | 8.0 | 17.0 | 0.00 | 0.00 | 0.00 | 55 | 1003.9 |
| 20260505205934 | 49 | 172 | 9.0 | 17.0 | 0.00 | 0.00 | 0.00 | 54 | 1004.0 |
| 20260505205434 | 49 | 174 | 9.0 | 17.0 | 0.00 | 0.00 | 0.00 | 54 | 1003.9 |
| 20260505204930 | 49 | 136 | 7.0 | 15.0 | 0.00 | 0.00 | 0.00 | 54 | 1003.9 |
| 20260505204429 | 49 | 112 | 6.0 | 15.0 | 0.00 | 0.00 | 0.00 | 52 | 1004.0 |
| 20260505203929 | 49 | 190 | 6.0 | 14.0 | 0.00 | 0.00 | 0.00 | 53 | 1003.9 |
| 20260505203429 | 49 | 154 | 7.0 | 16.0 | 0.00 | 0.00 | 0.00 | 53 | 1003.9 |
| 20260505202929 | 49 | 147 | 8.0 | 19.0 | 0.00 | 0.00 | 0.00 | 52 | 1003.9 |
| 20260505202423 | 49 | 163 | 6.0 | 19.0 | 0.00 | 0.00 | 0.00 | 51 | 1003.9 |
| 20260505201928 | 49 | 218 | 8.0 | 16.0 | 0.00 | 0.00 | 0.00 | 52 | 1003.9 |
| 20260505201923 | 49 | 192 | 6.0 | 16.0 | 0.00 | 0.00 | 0.00 | 52 | 1003.8 |
| 20260505200923 | 49 | 135 | 8.0 | 15.0 | 0.00 | 0.00 | 0.00 | 51 | 1003.9 |
| 20260505200424 | 49 | 174 | 7.0 | 16.0 | 0.00 | 0.00 | 0.00 | 51 | 1003.8 |
| 20260505195924 | 49 | 184 | 6.0 | 16.0 | 0.00 | 0.00 | 0.00 | 51 | 1003.8 |
| 20260505195427 | 49 | 137 | 6.0 | 15.0 | 0.00 | 0.00 | 0.00 | 52 | 1003.8 |
| 20260505195423 | 49 | 202 | 6.0 | 12.0 | 0.00 | 0.01 | 0.00 | 52 | 1003.7 |
| 20260505194422 | 49 | 145 | 6.0 | 14.0 | 0.00 | 0.01 | 0.00 | 52 | 1003.7 |
| 20260505193922 | 48 | 137 | 6.0 | 14.0 | 0.00 | 0.01 | 0.00 | 52 | 1003.6 |
| 20260505193421 | 48 | 169 | 6.0 | 13.0 | 0.00 | 0.01 | 0.00 | 51 | 1003.7 |
| 20260505192921 | 48 | 189 | 6.0 | 12.0 | 0.00 | 0.01 | 0.00 | 53 | 1003.7 |
| 20260505192422 | 48 | 163 | 5.0 | 12.0 | 0.00 | 0.01 | 0.00 | 53 | 1003.7 |
| 20260505191921 | 48 | 90 | 5.0 | 11.0 | 0.00 | 0.01 | 0.00 | 53 | 1003.7 |
| 20260505191421 | 48 | 185 | 6.0 | 13.0 | 0.00 | 0.01 | 0.00 | 53 | 1003.6 |
| 20260505190922 | 48 | 201 | 7.0 | 14.0 | 0.00 | 0.01 | 0.00 | 54 | 1003.6 |
| 20260505190422 | 48 | 181 | 7.0 | 14.0 | 0.00 | 0.01 | 0.00 | 54 | 1003.6 |
| 20260505185921 | 48 | 170 | 6.0 | 13.0 | 0.00 | 0.01 | 0.00 | 54 | 1003.5 |
| 20260505185426 | 48 | 135 | 6.0 | 13.0 | 0.00 | 0.01 | 0.00 | 54 | 1003.3 |
| 20260505185422 | 48 | 218 | 6.0 | 12.0 | 0.00 | 0.01 | 0.00 | 55 | 1003.5 |
| 20260505184421 | 48 | 176 | 6.0 | 13.0 | 0.00 | 0.01 | 0.00 | 54 | 1003.4 |
| 20260505183921 | 48 | 187 | 6.0 | 14.0 | 0.00 | 0.01 | 0.00 | 53 | 1003.3 |
| 20260505183422 | 48 | 158 | 5.0 | 14.0 | 0.00 | 0.01 | 0.00 | 52 | 1003.4 |
| 20260505182922 | 48 | 160 | 4.0 | 11.0 | 0.00 | 0.01 | 0.00 | 53 | 1003.3 |
| 20260505182422 | 48 | 183 | 5.0 | 12.0 | 0.00 | 0.01 | 0.00 | 53 | 1003.2 |
| 20260505181926 | 48 | 209 | 6.0 | 11.0 | 0.00 | 0.01 | 0.00 | 51 | 1003.2 |
| 20260505181922 | 48 | 187 | 6.0 | 12.0 | 0.00 | 0.01 | 0.00 | 51 | 1003.2 |
| 20260505180922 | 48 | 145 | 5.0 | 12.0 | 0.00 | 0.01 | 0.00 | 50 | 1003.1 |
| 20260505180422 | 48 | 156 | 6.0 | 16.0 | 0.00 | 0.02 | 0.00 | 51 | 1003.0 |
| 20260505175921 | 48 | 172 | 5.0 | 16.0 | 0.00 | 0.02 | 0.00 | 51 | 1002.9 |
| 20260505175421 | 48 | 195 | 6.0 | 13.0 | 0.00 | 0.02 | 0.00 | 51 | 1002.9 |
| 20260505174915 | 48 | 158 | 6.0 | 16.0 | 0.00 | 0.02 | 0.00 | 51 | 1002.9 |
| 20260505174420 | 48 | 179 | 6.0 | 15.0 | 0.00 | 0.02 | 0.00 | 51 | 1002.8 |
| 20260505174415 | 48 | 166 | 6.0 | 16.0 | 0.00 | 0.02 | 0.00 | 51 | 1002.9 |
| 20260505173415 | 48 | 176 | 6.0 | 14.0 | 0.00 | 0.02 | 0.00 | 52 | 1002.8 |
| 20260505172915 | 48 | 150 | 6.0 | 14.0 | 0.00 | 0.02 | 0.00 | 52 | 1002.8 |
| 20260505172415 | 48 | 132 | 6.0 | 18.0 | 0.00 | 0.02 | 0.00 | 52 | 1002.7 |
| 20260505171920 | 48 | 184 | 7.0 | 16.0 | 0.00 | 0.03 | 0.00 | 52 | 1002.8 |
| 20260505171915 | 48 | 126 | 6.0 | 18.0 | 0.00 | 0.03 | 0.00 | 51 | 1002.7 |
| 20260505170916 | 47 | 118 | 7.0 | 16.0 | 0.00 | 0.03 | 0.00 | 53 | 1002.7 |
| 20260505170416 | 47 | 104 | 6.0 | 14.0 | 0.00 | 0.04 | 0.00 | 55 | 1002.6 |
| 20260505165916 | 47 | 166 | 7.0 | 14.0 | 0.00 | 0.04 | 0.00 | 55 | 1002.6 |
| 20260505165419 | 46 | 118 | 7.0 | 14.0 | 0.00 | 0.04 | 0.00 | 56 | 1002.5 |
| 20260505165415 | 46 | 126 | 6.0 | 14.0 | 0.00 | 0.04 | 0.00 | 56 | 1002.5 |
| 20260505164413 | 46 | 162 | 7.0 | 15.0 | 0.00 | 0.04 | 0.00 | 56 | 1002.5 |
| 20260505163913 | 46 | 145 | 8.0 | 18.0 | 0.00 | 0.05 | 0.00 | 56 | 1002.5 |
| 20260505163413 | 46 | 156 | 8.0 | 16.0 | 0.00 | 0.05 | 0.00 | 56 | 1002.4 |
| 20260505162914 | 46 | 191 | 7.0 | 16.0 | 0.00 | 0.05 | 0.00 | 56 | 1002.4 |
| 20260505162413 | 46 | 160 | 7.0 | 16.0 | 0.00 | 0.05 | 0.00 | 58 | 1002.4 |
| 20260505161912 | 46 | 141 | 8.0 | 16.0 | 0.00 | 0.05 | 0.00 | 58 | 1002.5 |
| 20260505161412 | 46 | 145 | 8.0 | 16.0 | 0.00 | 0.05 | 0.00 | 57 | 1002.4 |
| 20260505160911 | 46 | 178 | 7.0 | 16.0 | 0.00 | 0.05 | 0.00 | 57 | 1002.3 |
| 20260505160412 | 46 | 104 | 6.0 | 14.0 | 0.00 | 0.05 | 0.00 | 58 | 1002.3 |
| 20260505152911 | 42 | 70 | 2.0 | 5.0 | 0.00 | 0.06 | 0.00 | 76 | 1002.2 |
| 20260505152907 | 43 | 142 | 2.0 | 8.0 | 0.00 | 0.06 | 0.00 | 72 | 1002.1 |
| 20260505151905 | 42 | 85 | 2.0 | 5.0 | 0.00 | 0.06 | 0.00 | 77 | 1002.1 |
| 20260505151406 | 42 | 33 | 2.0 | 5.0 | 0.00 | 0.06 | 0.00 | 78 | 1002.0 |
| 20260505150859 | 42 | 85 | 2.0 | 6.0 | 0.00 | 0.06 | 0.00 | 79 | 1002.0 |
| 20260505150357 | 42 | 85 | 2.0 | 6.0 | 0.00 | 0.06 | 0.00 | 79 | 1002.0 |
| 20260505140341 | 41 | 105 | 2.0 | 7.0 | 0.00 | 0.09 | 0.00 | 85 | 1001.8 |
| 20260505124833 | 38 | 351 | 1.0 | 4.0 | 0.00 | 0.12 | 0.00 | 95 | 1001.6 |
| 20260505124829 | 38 | 328 | 1.0 | 4.0 | 0.00 | 0.11 | 0.00 | 95 | 1001.6 |
| 20260505123829 | 38 | 351 | 1.0 | 4.0 | 0.00 | 0.12 | 0.00 | 95 | 1001.7 |
| 20260505123328 | 38 | 351 | 1.0 | 4.0 | 0.00 | 0.12 | 0.00 | 96 | 1001.6 |
| 20260505122826 | 38 | 351 | 0.0 | 3.0 | 0.00 | 0.12 | 0.00 | 95 | 1001.6 |
| 20260505122326 | 38 | 351 | 0.0 | 2.0 | 0.00 | 0.12 | 0.00 | 95 | 1001.5 |
| 20260505122321 | 38 | 351 | 0.0 | 3.0 | 0.00 | 0.13 | 0.00 | 95 | 1001.6 |
| 20260505121319 | 38 | 351 | 0.0 | 3.0 | 0.00 | 0.13 | 0.00 | 95 | 1001.5 |
| 20260505120920 | 38 | 351 | 2.0 | 5.0 | 0.00 | 0.13 | 0.00 | 95 | 1001.4 |
| 20260505120821 | 38 | 351 | 1.0 | 5.0 | 0.00 | 0.13 | 0.00 | 95 | 1001.4 |
| 20260505120817 | 38 | 337 | 2.0 | 5.0 | 0.00 | 0.13 | 0.00 | 95 | 1001.4 |
| 20260505115315 | 38 | 91 | 1.0 | 4.0 | 0.00 | 0.14 | 0.00 | 95 | 1001.5 |
| 20260505114817 | 38 | 233 | 1.0 | 3.0 | 0.00 | 0.14 | 0.00 | 96 | 1001.5 |
| 20260505114813 | 38 | 227 | 1.0 | 4.0 | 0.00 | 0.14 | 0.00 | 96 | 1001.5 |
| 20260505113811 | 38 | 191 | 0.0 | 3.0 | 0.00 | 0.15 | 0.00 | 96 | 1001.5 |
| 20260505113309 | 38 | 190 | 0.0 | 3.0 | 0.00 | 0.15 | 0.00 | 95 | 1001.5 |
| 20260505112808 | 38 | 203 | 0.0 | 0.0 | 0.00 | 0.15 | 0.00 | 95 | 1001.5 |
| 20260505112307 | 38 | 203 | 0.0 | 1.0 | 0.00 | 0.15 | 0.00 | 95 | 1001.6 |
| 20260505111805 | 38 | 203 | 0.0 | 3.0 | 0.00 | 0.15 | 0.00 | 95 | 1001.7 |
| 20260505111305 | 38 | 202 | 1.0 | 3.0 | 0.00 | 0.15 | 0.00 | 95 | 1001.7 |
| 20260505110805 | 38 | 293 | 0.0 | 3.0 | 0.00 | 0.16 | 0.00 | 95 | 1001.6 |
| 20260505110305 | 38 | 293 | 0.0 | 2.0 | 0.00 | 0.16 | 0.00 | 95 | 1001.5 |
| 20260505101902 | 39 | 292 | 1.0 | 3.0 | 0.00 | 0.18 | 0.00 | 95 | 1001.8 |